Location: Unspecified
(0.0000°N, 0.0000°E)
Time: 18:13:12
(UTC+00:00)

Hubble Space Telescope - Pass Details

Date: 24 March 2019
Orbit: 537 x 540 km, 28.5° (Epoch: 23 May)

Event Time Altitude Azimuth Distance (km) Brightness Sun altitude
Exits shadow 04:58:19 31° 238° (WSW) 943 1.5 -17.0°
Maximum altitude 04:59:12 35° 210° (SSW) 872 1.5 -16.8°
Drops below altitude 10° 05:02:59 10° 143° (SE) 1,782 3.9 -15.9°
Sets 05:05:23 0° 134° (SE) 2,673 5.0 -15.3°
